Location: Beynes
(43.9900°N, 6.2240°E)
Time: 14:55:02
(UTC+00:00)

Daily predictions for brighter satellites

Satellite Brightness Start Highest point End
(mag) Time Altitude Azimuth Time Altitude Azimuth Time Altitude Azimuth
BREEZE-M DEB (TANK) 3.7 19:06:02 10° SW 19:09:53 90° S 19:23:37 10° ENE
CSL-04 Debris 4.2 19:07:55 10° SSE 19:13:17 70° ENE 19:18:42 10° N
Milstar 3 4.1 19:08:04 10° SW 19:13:19 24° S 19:19:40 10° ESE
Cosmos 1536 Rocket 4.4 19:11:59 10° N 19:15:54 32° ENE 19:19:48 10° SE
Feng Yun 1-1 Rocket 4.5 19:11:49 10° SE 19:17:01 52° ENE 19:22:15 10° N
CZ-4C R/B 2.7 19:16:48 10° SSE 19:19:53 22° ESE 19:23:26 10° ENE
Okean O Rocket 3.2 19:20:52 10° ESE 19:23:58 20° ENE 19:27:05 10° NNE
Cosmos 1954 Rocket 4.0 19:19:20 10° NNW 19:24:32 79° ENE 19:29:40 10° SSE
Cosmos 1697 Rocket 3.3 19:19:14 10° NNW 19:24:36 44° ENE 19:29:55 10° SE
ERS-1 Rocket 3.2 19:20:53 10° SSE 19:25:43 52° ENE 19:30:36 10° N
ATLAS 3B R/B 3.5 19:18:46 10° NNW 19:26:18 49° NE 19:33:25 10° ESE
Cosmos 2360 4.5 19:21:23 10° NNW 19:27:06 75° WSW 19:32:47 10° SSE
Cosmos 1867 3.6 19:22:35 10° SSW 19:28:00 90° SE 19:33:30 10° NE
Cosmos 332 Rocket 3.9 19:26:22 10° NNW 19:31:07 62° ENE 19:35:47 10° SSE
Helios 1A Rocket 2.4 19:28:12 10° NNE 19:31:17 48° E 19:34:20 10° S
Meteor 1-31 Rocket 2.5 19:28:25 10° SSE 19:31:55 88° W 19:35:24 10° NNW
MOS 1 4.3 19:30:51 10° SSE 19:36:27 69° ENE 19:42:08 10° N
Okean-O 3.8 19:33:08 10° ESE 19:36:40 26° ENE 19:40:17 10° N
Cosmos 968 Rocket 3.9 19:34:21 10° N 19:39:27 48° ENE 19:44:08 12° SE
Cosmos 676 Rocket 4.0 19:34:46 10° NNW 19:40:00 79° ENE 19:45:11 10° SSE
Meteor 2-1 Rocket 4.4 19:36:41 10° S 19:42:14 54° E 19:47:41 10° NNE
Cosmos 2173 Rocket 4.1 19:37:24 10° SSE 19:43:17 53° E 19:49:17 10° NNE
Cosmos 1455 Rocket 4.2 19:42:58 12° SE 19:46:14 25° E 19:49:50 10° NNE
Aureole 1 4.5 19:47:42 10° S 19:50:56 68° ESE 19:54:59 10° NNE
Okean 1 Rocket 3.1 19:47:50 10° S 19:52:07 58° E 19:56:27 10° NNE
Cosmos 1980 Rocket 3.1 19:47:26 10° N 19:52:37 34° NE 19:56:48 15° ESE
SL-08 R/B 3.5 19:48:27 10° NNE 19:53:13 54° E 19:57:51 10° S
ARIANE 6 FM1 Upper Stage 4.4 19:50:34 10° WNW 19:53:52 25° WSW 19:57:10 10° S
CZ-4 R/B 2.2 19:54:43 10° S 19:58:10 42° W 20:01:39 10° NNW
Meteor 2-3 Rocket 3.7 19:52:50 10° N 19:58:28 74° ENE 20:03:58 11° SSE
CZ-4B R/B 4.4 19:58:30 13° E 19:59:41 15° ENE 20:01:43 10° NNE
Cosmos 1782 3.9 19:59:06 19° ESE 20:00:08 21° E 20:02:51 10° NE
Cosmos 1850 Rocket 4.4 19:57:44 10° N 20:02:45 48° ENE 20:06:16 19° SE
ASTEX 1 4.1 19:59:34 10° S 20:04:25 56° W 20:09:19 10° NNW
CZ-4B R/B 3.4 20:02:20 10° SSE 20:08:00 81° WSW 20:13:41 10° NNW
Cosmos 1833 Rocket 3.3 20:03:42 10° SW 20:09:13 59° WNW 20:14:47 10° NNE
Cosmos 1110 Rocket 4.0 20:04:14 10° SSW 20:09:29 78° ESE 20:14:49 10° NNE
Cosmos 1802 Rocket 4.1 20:03:41 10° S 20:09:45 59° E 20:15:47 10° NNE
Terra 2.1 20:07:37 10° S 20:12:16 65° WSW 20:16:57 10° NNW
Sich 1 Rocket 3.5 20:10:36 10° S 20:14:58 90° NE 20:19:20 10° N
Gbstr 26 Del rocket 3.9 20:10:40 10° NW 20:15:39 48° NNE 20:18:53 16° E
SJ 16-02 4.0 20:19:33 10° WNW 20:21:33 13° W 20:23:33 10° WSW
YAOGAN 11 4.0 20:18:25 10° NNE 20:22:50 70° ESE 20:26:53 12° S
CZ-2C R/B 4.3 20:23:39 13° ENE 20:23:39 13° ENE 20:24:52 10° NE
USA 229 DEB 4.3 20:20:12 10° NW 20:27:47 68° WSW 20:34:05 19° SSE
USA 229 4.3 20:20:15 10° NW 20:27:51 69° WSW 20:34:07 19° SSE
Cosmos 1743 2.2 20:25:03 10° N 20:28:00 54° E 20:28:34 45° ESE
Meteor 1-27 4.2 20:24:06 12° S 20:29:19 67° E 20:34:54 10° NNE
Cosmos 44 Rocket 3.3 20:24:53 10° SSW 20:29:54 85° SE 20:35:06 10° NE
Cosmos 1459 Rocket 4.2 20:24:32 10° SSW 20:30:47 73° W 20:36:59 10° N
ISS -3.9 20:28:08 10° SW 20:31:27 69° SE 20:34:47 10° ENE
Cosmos 2100 Rocket 4.5 20:28:15 10° SSW 20:34:22 62° W 20:40:37 10° N
Ariane Rocket 3.6 20:32:21 26° ESE 20:34:34 40° ENE 20:39:18 10° N
ADEOS 4.4 20:32:34 11° S 20:37:25 47° W 20:42:27 10° NNW
ATLAS 2AS CENTAUR R/B 4.3 20:32:42 10° WSW 20:39:02 36° NW 20:45:17 10° NNE
Spot 2 Rocket 3.7 20:36:59 20° S 20:40:29 68° WSW 20:45:30 10° NNW
BREEZE-M DEB (TANK) 3.5 20:39:46 10° WNW 20:42:58 76° SSW 20:47:10 26° SE
Cosmos 2369 4.3 20:38:19 10° NNW 20:43:47 44° ENE 20:46:24 27° ESE
SL-4 R/B 2.4 20:40:06 10° WNW 20:43:48 45° SW 20:44:44 37° S
MOS 1-B 4.5 20:39:56 20° S 20:44:02 74° WSW 20:49:52 10° NNW
Cosmos 2082 Rocket 2.3 20:40:45 16° S 20:45:11 57° ESE 20:50:47 10° NNE
Cosmos 2322 Rocket 4.4 20:42:43 10° N 20:45:38 14° NE 20:48:33 10° ENE
Cosmos 909 Rocket 4.1 20:41:47 10° S 20:48:00 52° ESE 20:54:07 10° NE
USA 305 4.2 20:45:52 10° NW 20:49:22 27° NNE 20:51:07 19° ENE
Cosmos 2151 4.2 20:49:07 10° NNE 20:52:35 26° ENE 20:52:53 25° E
Cosmos 2233 Rocket 3.9 20:51:19 20° S 20:55:52 84° E 21:02:05 10° N
Cosmos 1607 3.8 20:50:11 10° SSW 20:56:18 78° ESE 21:02:33 10° NE
USA 234 4.2 20:51:11 10° ENE 20:55:31 25° ESE 20:55:31 25° ESE
Cosmos 2228 2.8 20:55:36 35° S 20:57:16 87° W 21:01:25 10° N
USA 186 2.9 20:58:27 27° WSW 20:58:42 27° W 21:01:03 10° NW
Cosmos 1626 Rocket 4.0 20:55:17 10° N 20:59:26 43° ENE 21:00:04 41° ESE
Okean O Rocket 2.6 20:57:28 21° SSW 20:59:52 41° W 21:03:56 10° NNW
DELTA 2 R/B (1) 3.9 20:57:45 10° SW 21:02:55 40° SSE 21:03:11 40° SSE
Tsikada Rocket 3.9 20:59:35 10° N 21:05:47 88° W 21:08:51 32° S
Cosmos 1992 Rocket 4.0 21:05:58 42° SSE 21:07:22 56° ESE 21:12:29 10° NNE
CZ-4C R/B 2.9 21:03:31 10° WSW 21:07:31 43° NW 21:12:33 10° NNE
Cosmos 1452 Rocket 4.3 21:02:51 10° SW 21:07:56 50° WNW 21:13:02 10° N
Cosmos 1697 Rocket 4.2 21:03:33 10° NW 21:08:19 29° WSW 21:11:52 15° SSW
COSMOS 2406 3.6 21:07:30 39° SE 21:08:21 41° ESE 21:13:42 10° NE
Meteor 1-20 Rocket 4.5 21:06:58 10° N 21:12:23 52° ENE 21:13:52 41° ESE
Okean-O 4.0 21:10:27 19° SW 21:12:49 31° W 21:16:44 10° NNW
SL-16 R/B 3.3 21:07:52 10° N 21:12:57 33° NE 21:14:58 26° E
ATLAS 3B R/B 3.5 21:09:50 10° NW 21:17:04 46° WSW 21:20:47 26° S
CZ-4B R/B 3.4 21:19:07 46° S 21:20:27 71° WSW 21:25:14 10° NNW
Cosmos 2098 Rocket 4.0 21:25:31 39° E 21:25:32 39° E 21:29:59 10° NNE
Cosmos 1302 Rocket 4.5 21:21:11 14° SW 21:25:35 57° WNW 21:30:43 10° NNE
Cosmos 2333 Rocket 3.2 21:20:39 10° NNW 21:25:54 36° NE 21:27:39 30° E
Meteor 1-25 Rocket 4.4 21:25:49 10° N 21:31:26 56° ENE 21:32:32 48° ESE
CZ-4B R/B 3.8 21:33:11 30° W 21:33:11 30° W 21:36:12 10° NNW
Cosmos 2061 Rocket 4.4 21:29:50 22° SSW 21:33:53 61° W 21:40:06 10° N
Cosmos 1544 Rocket 3.5 21:35:33 71° SW 21:35:58 81° W 21:40:20 10° N
SPOT 3 Rocket 4.3 21:34:29 32° SW 21:36:20 44° W 21:41:15 10° NNW
Cosmos 1980 Rocket 3.1 21:31:22 10° NW 21:36:38 39° WSW 21:38:33 30° SSW
NOSS 3-3 (A) 3.6 21:34:26 20° SW 21:38:01 81° NW 21:44:04 10° NE
Cosmos 1933 3.6 21:44:20 60° N 21:44:20 60° N 21:47:30 10° N
Cosmos 2084 Rocket 3.5 21:46:30 10° NW 21:50:19 71° WNW 21:50:19 71° WNW
Helios 1B rocket 3.8 21:51:51 26° NE 21:51:51 26° NE 21:53:57 10° N
Cosmos 1758 Rocket 4.0 21:49:14 10° NNW 21:53:30 53° W 21:53:42 52° WSW
Cosmos 1375 Rocket 4.4 21:52:57 53° S 21:54:23 68° ESE 22:00:54 10° NE
Cosmos 1464 Rocket 3.9 21:53:23 58° SSE 21:54:27 69° E 22:00:35 10° NNE
Gbstr 26 Del rocket 4.1 21:57:38 10° WNW 22:00:52 35° W 22:00:52 35° W
Cosmos 2360 Rocket 3.0 21:57:47 10° NNW 22:03:09 41° ENE 22:04:14 37° E
NOSS 3-3 (C) 4.0 22:02:52 24° WSW 22:06:00 63° NW 22:12:08 10° NNE
ALOS 2 4.3 22:06:32 24° ENE 22:06:32 24° ENE 22:09:49 10° NNE
Meteor 2-10 4.2 22:00:41 10° N 22:06:24 70° ENE 22:06:57 65° ESE
ARIANE 5 R/B 4.0 22:07:11 29° ENE 22:07:11 29° ENE 22:10:43 10° N
ISS -1.7 22:05:31 10° WNW 22:08:14 28° NNW 22:08:14 28° NNW
Cosmos 1072 Rocket 4.4 22:08:18 57° SSW 22:09:42 84° W 22:16:02 10° N
Cosmos 1825 Rocket 4.0 22:05:36 10° N 22:09:11 54° NNE 22:09:11 54° NNE
USA 305 4.4 22:11:15 10° NW 22:13:09 25° WNW 22:13:09 25° WNW
Cosmos 1602 Rocket 4.3 22:15:00 10° NNW 22:18:42 47° WNW 22:18:42 47° WNW
Cosmos 1092 Rocket 4.4 22:14:13 10° N 22:20:09 47° ENE 22:20:51 45° E
Cosmos 2219 Rocket 3.2 22:15:28 10° N 22:20:39 35° NE 22:21:48 32° E
Cosmos 1437 Rocket 4.4 22:21:47 26° NW 22:21:47 26° NW 22:24:19 10° NNW
Cosmos 540 Rocket 4.4 22:23:21 35° ENE 22:23:21 35° ENE 22:26:58 10° NE
NOSS 3-4 (A) 4.1 22:16:36 10° NNW 22:23:17 61° NE 22:26:00 40° ESE
NOSS 3-4 (C) 4.1 22:17:13 10° NNW 22:23:55 60° NE 22:26:40 40° ESE
Cosmos 2034 Rocket 3.9 22:27:37 69° SSE 22:28:27 83° E 22:34:51 10° N
Cosmos 2082 Rocket 4.2 22:24:56 10° WSW 22:29:37 26° NW 22:34:21 10° N
Cosmos 1428 Rocket 4.3 22:24:18 10° N 22:30:34 81° W 22:31:20 69° SSW
Cosmos 2322 Rocket 2.2 22:25:04 10° NNW 22:30:44 70° ENE 22:31:03 68° E
Meteor 1-5 Rocket 4.5 22:34:05 10° NNW 22:39:39 58° W 22:40:03 56° WSW
USA 234 3.1 22:33:28 10° NE 22:40:03 89° NW 22:42:49 38° SW
Cosmos 1763 Rocket 3.7 22:45:39 66° NE 22:45:39 66° NE 22:50:18 10° NNE
Cosmos-2242 4.1 22:47:28 39° NNE 22:47:28 39° NNE 22:50:09 10° NNE
Cosmos 1503 Rocket 4.0 22:44:15 10° NNW 22:49:02 75° N 22:49:02 75° N
Cosmos 1777 Rocket 4.1 22:44:31 10° NNW 22:49:16 67° WNW 22:49:16 67° WNW
Cosmos 2278 3.9 22:44:11 10° NNW 22:49:38 61° W 22:49:38 61° W
CZ-2C R/B 4.2 22:47:10 10° NNE 22:51:56 36° E 22:51:56 36° E
Cosmos 990 Rocket 4.2 22:47:41 10° NNW 22:52:30 63° NE 22:52:30 63° NE
ARGOS Delta rocket 4.3 22:51:45 10° NNE 22:56:07 61° NE 22:56:07 61° NE
SL-16 R/B 2.9 22:51:49 10° NW 22:56:47 41° W 22:56:47 41° W
Cosmos 1634 Rocket 3.8 22:57:50 77° SE 22:58:05 79° E 23:04:17 10° N
Cosmos 1354 Rocket 4.1 22:54:27 10° NNW 22:59:19 70° NNE 22:59:19 70° NNE
Cosmos 2279 Rocket 4.1 23:01:48 59° E 23:01:58 59° E 23:08:07 10° NNE
SeaSat 1 3.8 23:03:53 29° ENE 23:04:45 30° NE 23:09:01 10° N
Meteor 2-6 Rocket 4.4 23:06:35 65° E 23:06:35 65° E 23:12:23 10° NNE
Cosmos 2221 4.2 23:09:57 26° NE 23:09:57 26° NE 23:12:10 10° NNE
Cosmos 2333 Rocket 3.1 23:04:58 10° NW 23:09:39 36° W 23:09:39 36° W
Meteor 2-2 Rocket 4.2 23:10:21 79° WNW 23:10:21 79° WNW 23:16:02 10° N
CZ-2C R/B 3.3 23:16:22 45° ENE 23:16:32 45° ENE 23:21:32 10° N
Cosmos 1833 4.2 23:17:41 70° WNW 23:17:49 70° WNW 23:23:28 10° NNE
BREEZE-M DEB (TANK) 3.8 23:10:26 10° W 23:17:56 66° N 23:22:58 10° E
Aureole 1 Rocket 3.7 23:26:24 10° NNW 23:31:56 86° ENE 23:32:03 85° ESE
Cosmos 2297 Rocket 3.8 23:33:58 23° E 23:33:58 23° E 23:37:34 10° NE
Cosmos 2266 Rocket 4.2 23:28:04 10° N 23:33:59 54° ENE 23:34:28 53° E
Cosmos 2322 4.3 23:28:58 10° NNW 23:34:31 49° ENE 23:35:16 46° E
Cosmos 44 3.9 23:32:32 10° NNW 23:37:51 55° NE 23:38:07 54° ENE
ALOS 2 4.2 23:43:55 27° WNW 23:43:55 27° WNW 23:46:30 10° NNW
ARIANE 5 R/B 4.4 23:44:33 24° WNW 23:44:33 24° WNW 23:46:59 10° NW
Cosmos 372 Rocket 4.2 23:39:05 10° NNW 23:43:34 67° N 23:43:34 67° N
RESURS DK-1 4.1 23:41:22 10° N 23:44:13 29° NE 23:44:13 29° NE
Cosmos 1937 Rocket 4.2 23:40:32 10° N 23:45:29 45° ENE 23:45:41 45° ENE
ISS0.223:50:53ENE23:50:53ENE23:41:23WNW
Cosmos 2360 Rocket 3.4 23:42:00 10° NW 23:45:58 30° W 23:45:58 30° W
Meteor 1-11 Rocket 3.8 23:43:44 10° N 23:49:26 65° ENE 23:49:31 65° E
GP-B 4.0 23:46:04 10° N 23:49:14 47° N 23:49:14 47° N
Cosmos 468 Rocket 4.3 23:51:08 59° NW 23:51:08 59° NW 23:56:09 10° NNE
Meteor 1-10 Rocket 4.2 23:52:27 76° E 23:52:27 76° E 23:58:21 10° NNE
